Wind_Speed
8 7 7 8 9 11 12 13 13 8 7 7 6 4 9 7 3 6 3 5 2 4 7 9 9 2 9 10 8 8 12 12 10 9 10 10 12 10 8 9 7 6 7 14 20 20 19 19 19 19 18 18 16 16 18 19 20 19 18 15 14 13 11 12 12 13 13 13 13 12 12 13 14 15 15 14 14 11 10 9 10 11 11 11 12 12
8 7 9 12 13 15 14 11 7 4 5 7 7 6 9 7 5 7 2 3 3 4 7 8 8 5 8 11 14 13 14 11 10 9 8 8 12 10 9 10 9 6 6 12 16 17 19 19 19 19 19 21 18 17 20 21 23 23 20 17 15 14 14 15 15 15 15 15 14 13 14 15 14 14 14 15 14 12 11 10 10 11 11 11 12 12
7 9 13 14 15 17 13 7 5 5 8 8 7 7 8 5 5 8 5 3 2 2 6 9 9 6 5 7 9 13 13 10 9 9 9 8 10 11 10 9 9 8 6 9 12 14 19 19 19 17 19 23 20 20 23 22 23 24 23 21 18 16 16 17 17 16 16 16 15 14 13 13 13 12 13 14 13 11 11 11 11 12 12 12 12 12
7 10 13 14 16 16 10 6 6 7 7 7 8 7 7 7 4 4 4 4 2 3 6 8 8 7 6 8 7 8 9 8 9 10 9 8 8 8 10 9 9 11 7 8 11 13 15 17 19 17 18 23 21 21 24 24 23 23 24 24 21 18 17 17 18 18 18 15 14 14 12 11 12 11 12 13 13 11 11 12 13 13 13 14 13 13
12 14 14 12 12 10 8 8 9 7 7 9 10 8 10 10 4 4 3 0 2 7 10 10 7 6 7 8 8 8 10 8 7 9 9 8 6 4 5 6 9 12 9 8 11 12 12 15 18 18 18 23 23 23 26 27 27 26 25 23 21 19 18 18 18 18 18 16 14 14 12 11 10 10 12 14 14 13 13 14 14 14 13 14 14 16
13 15 14 10 5 5 8 9 10 8 7 8 11 13 13 12 8 5 8 6 4 7 7 6 6 4 4 6 6 3 6 8 5 6 8 8 8 5 4 5 7 10 9 7 10 11 11 14 19 20 21 25 25 25 28 29 29 28 24 22 21 19 18 18 17 17 18 17 16 15 12 11 11 11 14 17 16 15 15 15 14 13 13 14 16 18
10 11 8 7 7 8 9 10 11 10 8 6 6 8 9 7 9 8 9 7 5 7 5 1 4 4 4 6 4 2 5 7 6 4 7 7 8 8 8 8 8 10 12 11 12 13 13 15 17 19 24 28 29 28 27 28 28 27 24 22 21 20 19 19 17 16 18 18 17 16 13 13 15 15 16 18 17 16 16 15 15 15 16 20 21 18
8 10 7 7 10 11 8 8 11 10 9 5 1 6 5 3 6 9 10 8 6 8 7 5 8 6 5 7 4 5 7 7 8 8 9 9 8 9 11 11 9 10 12 12 11 11 12 14 16 18 22 28 30 29 26 25 26 26 24 23 22 21 20 19 18 18 19 19 18 18 16 14 17 18 17 16 15 16 16 16 18 19 20 26 26 20
7 11 12 12 10 9 9 10 12 11 11 9 4 6 7 5 8 9 8 8 7 7 7 8 8 6 5 6 5 7 8 8 9 9 9 9 10 9 10 13 12 10 10 10 9 9 9 12 17 21 23 25 27 28 27 25 24 24 25 23 22 22 20 19 19 19 21 21 19 19 18 16 16 17 17 16 15 16 17 17 18 18 19 22 23 21
9 7 7 10 10 8 10 11 13 13 11 8 5 6 7 8 10 9 7 7 8 7 7 8 7 6 5 4 4 6 8 7 8 7 5 5 5 2 2 6 11 11 11 10 9 9 10 14 17 20 23 24 25 26 28 27 23 23 23 23 22 21 20 19 19 20 20 21 20 19 19 18 17 17 16 15 15 17 18 18 18 18 18 18 18 19
14 9 5 7 8 8 10 12 14 14 11 7 3 5 8 9 8 7 7 6 7 6 8 10 11 8 5 3 4 2 3 1 2 3 1 1 2 6 6 3 6 10 12 12 10 8 9 15 18 20 23 24 25 24 25 25 23 23 23 23 23 22 21 20 20 20 20 21 22 21 19 19 18 17 16 16 16 17 18 18 18 19 18 17 17 18
16 13 7 7 9 9 11 12 12 10 8 7 5 6 7 7 6 6 6 6 6 6 8 11 12 10 5 4 3 2 4 3 4 3 2 2 1 4 5 1 1 4 7 11 12 10 10 13 16 19 21 23 24 24 24 24 23 23 23 23 23 23 22 21 20 20 20 21 21 21 19 19 18 17 16 16 17 18 19 18 18 18 18 17 17 17
12 13 12 11 11 11 12 10 9 6 5 7 6 6 6 6 6 6 6 6 6 6 8 9 7 6 4 4 6 2 3 4 3 3 4 3 2 3 3 0 0 1 3 5 7 10 11 9 9 11 15 19 21 23 23 23 22 22 22 22 22 22 22 21 19 19 19 20 20 20 19 18 18 18 18 17 17 18 18 18 17 17 17 17 17 17
8 11 15 14 10 11 12 10 7 7 8 8 8 6 7 6 5 6 6 5 6 7 9 9 6 4 3 4 7 1 8 9 7 6 5 3 3 3 1 2 3 4 5 4 4 8 10 8 9 12 14 15 16 19 22 22 21 21 20 21 21 21 21 20 18 18 18 19 20 19 19 18 17 18 19 19 17 17 17 17 17 17 16 16 17 17
9 8 11 14 9 10 14 13 11 10 9 9 9 8 8 7 6 6 5 5 6 6 7 9 6 3 3 1 2 6 11 9 6 5 3 2 1 1 2 4 5 5 4 6 6 6 9 10 11 13 15 15 15 16 20 21 21 20 20 20 20 19 20 19 17 16 17 18 19 19 18 18 17 17 18 18 17 16 16 16 16 16 16 16 16 16
12 10 9 12 11 12 14 14 13 13 10 8 9 9 8 8 7 6 6 7 6 6 5 5 4 3 2 1 3 6 8 8 6 5 5 4 3 2 2 4 3 4 4 3 7 7 9 11 11 11 13 15 15 15 17 18 18 19 18 18 19 18 18 18 17 15 16 17 18 18 18 18 18 17 17 17 17 16 16 16 16 15 16 16 15 16
10 9 10 12 12 15 15 13 14 12 9 6 8 9 8 10 9 6 6 7 6 6 5 4 6 6 4 4 7 7 8 8 7 6 6 5 4 4 2 2 2 2 4 2 3 8 9 9 9 10 10 11 12 13 15 16 17 18 19 18 18 19 18 18 17 16 17 17 19 19 19 19 19 18 17 17 16 16 16 16 16 16 15 15 15 15
9 9 10 13 13 14 15 15 15 14 12 8 7 8 7 10 10 6 5 5 6 7 5 6 10 9 6 5 6 8 8 7 7 9 10 8 7 6 5 4 2 4 2 2 3 6 9 9 9 11 11 11 11 8 10 14 16 18 19 18 18 19 19 18 19 19 19 19 19 19 19 19 19 18 18 17 16 16 16 16 17 16 15 15 15 14
10 10 9 13 15 12 12 13 12 13 16 14 10 9 6 6 6 6 5 4 6 6 5 9 11 9 7 4 6 9 9 9 9 8 8 9 8 6 6 6 5 4 4 4 1 3 7 8 8 10 9 9 12 13 14 16 18 21 21 19 18 17 17 19 21 22 20 19 18 18 18 19 19 18 18 18 17 17 16 16 16 16 15 14 15 14
9 8 7 11 15 11 9 8 8 10 15 15 13 11 8 5 5 5 5 4 6 6 6 8 8 7 5 4 7 8 8 8 6 3 2 2 3 4 4 4 4 3 4 4 3 4 7 8 9 11 9 9 13 16 17 13 11 14 18 18 17 17 18 20 22 22 20 19 18 18 18 19 19 19 18 19 19 18 18 17 16 16 15 14 14 14
7 7 7 9 13 12 7 7 10 11 10 10 10 10 9 7 6 6 6 6 7 6 6 6 6 6 3 3 6 6 5 5 4 3 3 2 2 2 3 4 2 1 2 2 1 1 5 8 11 13 12 10 11 14 16 12 9 11 13 16 17 17 20 22 24 24 23 20 18 18 19 19 19 20 19 19 19 19 19 18 17 17 16 15 14 14
4 4 7 9 10 11 9 10 15 15 12 10 9 9 9 9 8 8 8 8 8 7 6 6 6 6 3 2 4 5 6 6 6 6 6 6 6 4 2 7 6 2 1 2 1 0 2 4 9 14 14 13 12 14 17 19 21 22 18 18 20 19 19 22 25 27 25 21 20 20 19 19 20 21 20 19 19 20 19 19 19 19 18 17 15 15
5 3 6 9 11 14 13 13 16 16 15 14 13 10 9 9 9 8 7 7 7 8 8 8 7 6 4 3 4 5 7 7 9 9 6 4 4 1 1 3 7 7 4 3 3 3 2 3 5 8 12 14 13 15 19 21 23 25 21 19 20 20 20 22 25 27 26 23 21 21 21 21 22 22 22 21 21 20 20 20 20 20 20 19 17 16
5 3 6 8 10 15 17 15 16 16 15 14 13 12 11 10 11 10 9 7 6 8 8 7 6 6 5 5 4 7 8 8 7 7 4 3 2 1 2 3 1 3 5 6 6 5 4 6 6 7 10 12 11 14 20 22 20 21 21 20 20 21 21 22 23 24 24 23 22 21 22 23 23 22 22 23 22 22 22 22 21 21 21 19 17 16
3 3 6 7 7 10 13 13 13 13 11 8 8 13 15 16 17 14 10 7 6 9 12 9 6 6 5 4 5 6 9 8 7 5 5 5 3 4 3 4 4 3 3 5 6 7 6 6 5 6 8 11 14 16 18 20 19 21 23 23 21 21 22 23 23 22 23 24 24 24 24 24 24 23 23 23 24 24 23 22 22 22 21 20 19 17
1 4 5 7 9 9 10 10 8 7 8 7 9 15 18 20 20 14 8 7 7 10 13 10 7 7 6 5 5 5 5 6 6 5 6 5 2 2 3 4 3 2 2 5 3 3 3 2 3 6 6 8 13 15 17 19 21 22 24 25 25 25 25 24 24 24 24 24 24 24 25 25 25 24 23 24 24 25 24 23 22 21 18 14 12 12
1 4 9 11 11 10 11 11 6 3 5 7 10 15 17 20 20 13 8 8 8 8 10 11 11 12 10 8 8 8 7 8 7 6 7 5 2 3 2 1 0 0 2 4 5 4 3 4 5 6 9 11 11 12 13 18 21 22 22 23 26 28 27 24 24 23 22 22 24 26 26 26 26 25 24 24 25 25 24 23 21 18 16 15 14 15
1 7 13 14 15 14 16 16 11 8 7 5 8 12 13 15 18 15 10 9 9 8 9 11 13 14 12 11 11 10 8 7 5 5 6 4 2 2 2 2 3 3 3 5 7 6 5 5 5 5 8 10 10 11 12 11 16 23 24 23 26 30 30 27 25 23 20 18 20 24 27 26 27 27 25 24 25 24 22 21 20 19 20 23 23 22
1 8 11 13 16 16 17 19 17 15 11 5 6 12 15 16 18 17 15 13 12 10 9 11 13 13 12 11 10 9 8 6 5 4 4 3 3 4 5 7 9 6 6 8 7 6 4 5 6 5 5 6 7 9 11 13 14 20 25 23 24 30 33 30 27 25 24 19 18 23 27 26 26 26 25 22 21 21 20 21 23 22 22 24 23 23
2 6 9 11 15 16 18 20 19 19 17 11 10 15 17 15 18 20 19 18 16 15 14 15 15 13 10 8 7 4 5 6 5 5 5 6 7 7 7 11 12 7 6 7 6 5 5 7 9 9 8 7 7 8 10 14 15 13 19 20 21 28 33 32 28 25 24 24 23 26 28 25 25 25 25 23 20 19 20 21 23 24 24 24 23 23
1 4 8 9 11 13 16 17 18 20 17 13 14 18 20 17 17 19 19 15 14 15 15 16 16 12 7 7 8 6 5 6 5 5 6 6 7 8 8 8 8 5 6 8 6 5 6 7 8 8 9 10 11 11 12 14 14 10 12 17 21 26 30 31 30 27 25 26 26 25 29 28 27 25 24 22 20 20 20 20 22 24 24 25 24 24
1 4 7 6 8 10 8 12 17 12 8 12 17 19 18 18 16 16 15 12 11 13 13 13 13 8 3 6 8 6 7 8 8 8 6 3 7 10 7 5 5 5 6 7 7 8 8 8 7 7 8 12 13 13 14 16 16 12 13 15 19 26 29 30 31 29 26 25 23 20 23 29 28 25 23 20 19 21 21 21 22 23 24 25 25 25
3 6 6 6 8 8 5 8 8 3 6 10 15 10 11 16 17 15 16 16 14 11 9 10 9 4 2 4 7 7 8 9 6 5 4 1 4 7 4 3 4 4 6 8 8 8 8 7 8 9 10 12 14 14 15 18 19 14 13 14 17 24 26 27 26 23 21 21 20 18 19 26 27 24 23 22 21 23 22 22 23 25 25 26 26 24
4 7 7 7 6 6 5 4 1 0 6 10 5 4 12 17 18 16 16 17 13 7 8 12 10 6 6 6 7 7 7 4 1 2 1 3 3 5 5 4 4 5 5 6 7 7 7 7 8 10 12 13 15 16 15 18 21 19 13 10 16 24 22 20 19 17 17 18 17 16 19 23 22 21 22 22 22 23 23 23 24 26 27 26 25 23
5 5 5 5 3 3 2 3 2 8 10 4 1 6 12 15 16 15 15 18 14 8 11 16 14 10 8 6 3 1 2 2 3 3 1 2 3 1 2 3 2 3 3 4 5 6 6 7 9 10 12 14 15 16 16 16 19 20 15 9 15 23 22 18 18 19 19 18 17 18 20 21 19 20 23 24 23 22 24 24 25 25 25 25 25 25
5 3 2 2 3 2 1 5 8 6 4 3 7 9 7 8 10 10 11 15 16 12 12 13 12 11 7 2 2 4 4 3 3 1 3 3 6 5 3 3 1 1 2 3 4 4 5 7 9 11 13 15 14 15 16 17 18 18 17 14 15 23 23 20 20 19 19 18 18 18 19 19 18 19 20 24 25 25 24 25 26 25 24 24 25 24
6 3 1 3 5 4 4 6 5 6 8 9 10 8 8 9 8 7 9 12 13 13 11 10 10 8 4 0 1 3 3 2 1 3 4 6 9 8 5 4 2 1 3 4 6 7 6 6 10 13 15 15 14 14 15 16 18 17 16 15 12 21 24 20 21 22 20 18 18 18 18 16 16 17 19 21 25 27 26 26 27 26 25 25 25 25
6 4 4 6 4 3 5 5 4 6 10 9 8 9 10 7 4 3 7 9 9 10 9 9 7 2 1 3 7 6 3 1 3 1 3 7 8 6 4 3 2 2 4 5 9 11 5 6 11 13 14 15 12 12 13 13 16 17 15 14 11 15 20 18 21 23 21 18 18 19 18 16 15 18 20 20 21 24 25 26 28 29 29 27 26 27
5 4 4 5 3 2 5 6 6 8 6 2 6 10 8 4 8 6 4 8 7 9 10 9 5 2 3 3 6 7 3 3 2 2 5 6 6 5 3 1 2 3 5 8 11 10 5 7 12 11 11 13 12 12 14 12 13 15 14 14 12 12 17 17 18 19 18 18 18 19 21 19 16 16 19 21 21 21 21 23 25 27 29 29 28 27
6 4 4 6 4 3 4 5 4 5 3 2 1 2 3 7 10 6 5 6 4 6 8 6 4 3 4 3 3 5 4 2 2 3 3 3 3 2 1 1 2 4 7 9 8 7 8 9 12 10 9 11 12 13 15 12 11 13 12 12 12 7 8 11 14 15 15 14 15 18 21 21 20 19 20 22 22 20 18 20 21 23 26 28 28 26
4 4 5 7 6 5 5 4 4 4 3 4 1 7 8 5 4 6 7 1 4 3 2 3 3 3 5 5 3 4 3 1 4 5 3 2 0 1 2 3 4 5 7 9 6 7 8 10 10 9 8 9 11 12 14 11 9 9 8 8 6 2 0 3 7 11 12 9 7 12 18 19 19 20 22 23 21 19 18 18 19 21 26 28 27 25
4 4 4 6 7 6 4 3 5 4 3 5 3 4 7 4 2 6 4 3 5 6 6 6 5 6 5 3 2 1 1 2 2 2 2 1 1 2 2 3 4 4 5 8 7 6 7 8 10 10 9 8 9 10 11 12 10 8 5 5 4 3 5 7 7 8 10 9 8 8 10 12 13 17 23 25 21 17 17 19 18 17 18 19 19 19
5 4 4 5 6 5 3 5 6 4 4 8 3 2 4 5 2 1 3 5 4 5 5 3 4 5 3 3 2 1 2 2 1 1 2 1 1 1 1 2 4 5 4 6 6 6 6 7 10 11 9 8 8 8 9 10 11 10 6 2 5 8 11 11 9 9 11 13 12 10 10 11 15 21 25 24 19 16 16 17 15 13 12 13 14 15
5 5 4 5 6 4 4 7 5 3 0 8 6 2 5 5 1 1 1 3 2 3 3 2 2 4 4 3 3 4 2 1 2 2 2 3 3 2 1 1 4 6 6 6 6 3 2 5 9 11 10 8 6 7 7 8 9 10 7 3 4 7 9 11 12 12 12 12 10 10 10 12 18 23 23 19 17 18 18 16 14 13 14 17 19 20
7 7 3 3 6 6 5 5 3 2 2 1 2 1 1 2 2 2 1 2 2 3 2 2 3 4 5 3 1 2 1 1 2 2 1 2 3 4 4 4 5 5 6 8 7 3 1 3 7 9 11 9 7 7 7 7 7 8 7 6 4 4 5 10 13 13 12 10 9 11 12 13 16 20 21 21 21 19 18 17 15 13 15 19 21 18
6 7 3 2 5 6 7 7 4 2 1 3 4 3 3 2 1 2 2 1 0 1 3 3 1 1 2 3 1 3 2 1 2 2 1 2 3 4 5 6 6 5 6 9 9 5 3 3 5 6 8 9 9 10 9 7 7 6 7 6 6 6 5 4 6 9 11 12 13 14 14 15 15 15 16 18 19 18 17 16 15 14 16 18 19 17
7 10 7 5 6 6 5 6 9 9 4 5 5 2 3 2 2 2 3 2 2 2 2 2 2 1 1 2 0 4 4 2 3 3 3 3 4 5 5 5 6 7 7 7 8 8 7 6 6 5 5 6 8 10 9 8 8 6 5 6 5 6 7 7 7 5 4 6 10 12 12 12 13 13 13 13 12 14 15 14 15 17 17 18 20 21
6 9 9 8 9 7 3 3 7 9 5 5 4 2 2 2 2 1 3 3 2 2 3 1 1 2 1 0 3 6 6 4 4 4 4 5 5 5 5 5 6 7 8 7 8 8 7 7 7 6 5 5 6 8 8 8 9 8 6 5 5 5 5 7 9 10 8 6 7 9 10 12 12 12 14 13 12 13 14 12 14 17 18 19 22 25
2 5 6 4 5 5 5 7 6 5 5 3 3 3 1 4 3 3 5 7 5 3 4 4 3 3 3 6 8 8 7 6 5 5 6 7 6 5 5 6 7 8 8 8 9 9 7 7 8 8 7 7 6 6 6 7 8 9 7 6 5 5 5 6 7 7 8 10 11 11 13 15 14 13 14 12 11 13 13 12 14 17 19 21 23 24
3 4 3 2 2 3 2 3 4 3 3 3 3 4 5 6 4 2 4 6 7 6 7 7 6 6 7 9 9 8 8 6 5 6 7 7 6 6 6 7 9 9 9 9 10 10 8 8 9 9 8 8 7 7 7 7 7 7 7 8 9 7 7 8 8 7 6 8 10 12 15 17 17 16 15 12 12 12 11 12 15 17 18 20 21 23
5 4 2 3 3 2 1 3 3 2 2 0 2 3 5 6 5 6 7 7 8 8 7 5 4 5 6 7 6 6 6 6 6 7 7 7 7 8 9 10 10 9 9 9 10 10 9 10 9 9 10 11 11 9 7 7 6 7 8 10 12 12 11 10 9 7 6 6 8 11 15 18 20 19 16 14 13 12 10 12 15 18 18 18 18 20
Wind_Direction
211 231 235 239 250 250 246 239 243 284 334 316 304 247 252 262 249 261 228 125 122 283 275 271 286 236 178 181 160 210 218 198 210 185 179 186 161 166 174 179 198 185 173 157 161 171 165 163 167 169 175 179 189 191 186 190 192 192 192 192 197 198 199 197 195 198 199 200 204 206 211 218 220 215 215 217 220 220 216 218 216 207 201 200 206 218
209 237 245 242 249 248 254 266 261 291 309 282 281 275 266 265 290 291 234 136 188 228 276 276 276 259 202 188 168 199 222 196 198 194 192 188 155 161 181 186 189 177 173 157 159 168 161 163 169 173 181 182 191 203 198 198 200 202 202 200 200 198 199 201 201 202 203 205 205 205 210 216 217 215 217 218 219 218 207 197 201 210 209 200 203 215
217 238 245 246 254 251 253 293 325 289 269 265 263 263 271 266 279 275 215 192 244 229 284 283 277 279 258 239 195 196 211 195 193 198 195 187 163 168 183 193 184 167 176 159 156 168 165 169 172 172 191 192 192 207 212 211 210 213 216 216 212 205 205 206 205 206 206 209 208 206 209 213 219 222 221 221 220 219 207 194 196 208 210 204 203 208
246 236 236 235 240 249 251 250 264 272 261 257 260 261 261 245 253 281 174 152 273 247 261 281 293 291 277 274 253 216 212 204 198 195 191 188 186 187 183 188 174 159 175 174 166 172 167 171 174 171 195 203 196 202 216 220 218 220 222 222 220 214 213 210 209 210 209 210 207 207 213 220 229 232 227 225 220 214 208 202 203 203 199 202 205 206
260 263 268 258 229 230 251 245 238 253 256 241 244 256 270 270 292 330 306 256 260 248 244 248 260 270 259 256 252 223 203 209 211 191 185 188 190 192 171 169 162 154 168 182 171 170 167 172 178 174 191 210 208 201 211 221 222 222 221 221 221 217 212 210 212 213 211 209 204 202 207 215 228 229 221 221 218 208 205 207 210 207 198 198 205 206
255 264 270 267 227 214 248 252 235 234 254 250 243 237 241 270 301 303 289 301 286 270 264 245 250 268 256 254 268 258 195 190 200 201 195 188 181 180 176 175 164 147 148 174 174 169 172 178 179 173 181 207 219 213 211 219 224 224 221 220 218 212 208 211 212 211 210 209 205 200 197 203 214 218 215 215 212 205 206 211 213 209 199 195 203 206
252 270 275 252 241 236 238 253 247 237 247 257 277 263 232 256 295 289 284 288 272 282 315 346 266 279 282 266 247 230 221 183 162 221 230 207 192 188 190 190 182 162 158 175 179 174 179 182 182 177 178 196 216 223 218 219 224 222 219 219 213 206 205 209 210 208 210 208 206 205 204 210 215 219 220 215 210 207 209 214 211 203 192 189 198 207
239 257 267 246 250 250 235 245 249 245 255 249 348 309 283 261 272 269 270 268 265 281 286 244 237 245 270 279 240 195 226 200 174 212 227 215 210 201 192 189 193 187 173 173 176 170 171 176 180 182 185 192 207 221 221 217 220 218 217 218 212 206 204 205 207 211 212 207 204 207 210 216 220 224 227 220 214 214 213 211 206 197 189 188 192 199
246 238 236 231 240 254 246 243 241 235 248 254 273 320 311 290 275 277 275 272 274 276 271 254 243 247 252 261 243 202 211 211 203 219 223 210 211 212 198 187 190 185 159 157 166 153 156 180 185 185 192 197 200 209 212 210 212 212 214 216 211 209 206 204 208 212 212 207 205 208 210 215 220 224 229 226 221 217 211 208 204 198 194 193 193 195
252 237 251 246 234 239 245 247 246 242 247 257 296 330 303 277 275 280 275 276 276 262 263 267 255 263 264 244 248 221 203 209 213 218 223 211 200 153 126 160 169 165 146 148 166 158 163 185 189 186 193 200 200 203 206 207 208 208 209 211 210 210 209 206 207 208 209 209 208 209 210 215 218 220 223 223 220 214 208 207 206 203 202 202 202 203
253 253 298 283 251 243 241 239 242 246 253 256 270 287 275 267 261 260 258 261 275 268 263 266 258 258 266 261 280 249 146 121 155 163 119 62 53 67 71 102 152 160 152 153 166 172 171 179 187 190 193 200 203 202 202 203 206 206 204 205 207 209 210 210 209 208 208 209 210 212 214 216 216 215 215 214 212 207 205 206 207 209 209 208 209 210
253 252 254 249 248 261 256 244 243 250 255 253 258 270 272 266 243 242 250 239 248 258 258 260 248 240 246 257 267 113 121 142 154 156 106 80 62 86 91 83 141 151 159 161 167 176 183 181 185 192 194 196 198 197 197 200 202 205 205 203 204 206 206 208 209 209 209 210 212 214 217 219 218 216 214 212 211 205 203 207 209 211 211 211 212 212
251 248 244 231 220 237 255 254 250 254 251 244 253 262 263 266 246 228 235 235 239 247 258 271 252 223 229 257 261 237 122 123 115 78 56 54 18 63 84 280 260 152 190 180 167 166 172 173 172 188 199 198 195 194 195 197 199 203 205 204 203 203 203 204 205 206 209 212 214 215 218 220 220 219 217 216 214 211 207 208 210 210 210 210 211 211
247 242 242 237 213 210 232 246 242 229 218 222 234 238 240 252 257 243 237 236 246 244 243 254 257 238 242 262 266 238 96 89 77 62 51 38 9 20 11 260 244 217 197 177 152 147 151 157 166 180 196 204 203 197 193 196 201 203 205 206 203 203 203 203 204 207 209 213 216 218 220 221 221 222 221 219 218 218 214 210 211 212 212 211 211 211
257 247 228 227 210 196 215 229 243 245 229 215 217 226 233 240 249 257 260 251 253 263 250 237 233 228 236 315 52 90 96 99 103 102 99 89 16 315 265 260 267 258 207 162 155 149 139 146 166 179 186 196 207 205 198 198 201 202 203 205 204 204 203 203 205 206 209 214 217 219 220 221 222 223 224 222 221 223 219 215 216 215 215 215 213 211
257 263 248 236 215 203 213 217 230 248 250 228 214 220 229 242 254 259 269 275 274 285 282 257 247 234 215 140 132 132 128 132 130 135 154 164 192 216 238 248 261 287 278 190 159 148 136 144 162 180 185 186 194 203 204 203 202 204 205 204 205 205 204 204 205 207 211 215 218 218 219 221 221 222 224 223 222 223 221 218 218 217 217 217 215 213
250 256 256 256 233 216 217 211 214 231 248 246 230 227 220 228 247 259 256 263 266 267 267 262 267 255 227 210 198 171 141 137 146 162 168 170 186 180 179 269 275 252 269 283 133 129 130 143 156 174 192 187 181 193 207 210 208 209 208 204 203 204 204 203 204 208 212 216 219 219 219 219 220 220 221 221 221 220 221 220 219 220 218 216 216 212
251 263 258 259 255 232 217 211 211 218 234 247 246 244 228 216 227 246 254 245 242 251 247 241 250 249 244 231 189 159 143 163 186 175 167 174 187 183 170 176 219 234 216 49 55 114 130 144 159 177 193 182 168 187 221 219 211 210 210 206 203 203 201 199 203 211 213 217 221 222 222 221 221 221 221 221 222 220 220 220 218 220 219 216 214 213
240 265 264 257 262 245 214 213 218 217 223 234 252 262 252 226 224 235 246 252 251 252 249 243 241 239 244 221 165 163 166 192 206 182 174 181 178 176 170 167 185 202 153 119 186 154 130 142 165 177 179 160 162 190 215 218 211 208 207 205 203 204 201 198 204 211 215 218 221 223 225 223 221 222 221 220 221 221 221 221 218 217 218 216 214 214
230 251 257 254 260 249 210 208 232 229 217 221 240 254 257 258 254 247 241 238 247 251 254 256 249 244 245 178 175 191 184 195 203 174 211 230 166 166 165 165 184 174 136 142 203 174 136 146 169 175 178 165 163 184 205 223 231 218 210 203 199 202 204 205 208 211 214 217 220 222 224 224 221 220 219 218 219 220 221 221 219 218 218 218 216 215
226 231 244 255 262 255 225 202 225 237 228 218 223 234 247 249 232 237 246 235 239 250 251 257 254 251 262 130 174 199 176 177 177 164 218 266 269 229 154 127 119 45 67 85 25 76 132 157 169 172 180 183 176 185 194 206 231 232 221 211 202 198 201 207 212 214 214 216 219 222 223 224 223 220 218 218 217 217 220 221 220 220 220 220 219 216
232 216 232 244 251 253 239 218 221 228 233 236 230 221 232 247 238 235 240 228 229 242 242 252 255 247 242 129 150 162 155 164 177 192 211 209 212 230 137 122 127 113 68 100 98 102 149 167 166 164 171 183 197 196 183 184 197 203 207 211 206 200 201 208 216 219 218 216 218 222 223 223 223 220 217 217 216 217 218 221 223 222 223 224 222 219
263 243 242 241 241 250 252 241 233 227 226 239 248 233 221 234 241 242 245 235 231 238 238 246 253 248 245 225 171 163 171 180 189 198 211 214 202 225 23 112 137 145 150 157 170 166 141 122 132 155 169 182 201 199 180 180 190 193 199 205 203 204 209 212 217 222 222 220 219 221 223 224 224 222 218 216 217 218 216 218 221 221 223 225 223 221
280 252 253 252 243 247 252 253 250 238 227 233 244 242 231 227 230 236 247 251 245 242 240 242 244 240 240 232 195 179 188 202 213 210 213 227 192 139 354 343 30 139 163 182 179 159 154 155 158 179 185 188 207 203 185 184 187 188 196 201 201 209 219 221 220 220 221 222 222 222 223 223 223 222 219 217 217 217 217 217 218 219 223 226 225 224
299 248 250 254 244 240 238 243 248 239 231 236 244 245 243 236 232 233 239 245 246 245 245 247 248 239 229 219 213 205 200 210 223 218 223 233 200 166 191 229 229 201 203 209 181 165 178 183 192 214 202 196 209 205 189 186 187 185 190 200 205 212 221 225 222 218 218 219 220 221 222 223 223 221 218 216 217 218 217 217 216 218 220 221 222 223
253 257 249 245 237 232 228 228 234 235 236 244 247 248 247 241 234 229 229 237 238 236 239 243 250 249 238 221 225 229 223 230 232 220 234 256 276 220 205 200 192 177 252 268 246 187 189 216 255 261 255 236 224 211 191 185 189 189 190 198 206 209 214 218 217 217 218 219 218 220 222 222 222 221 218 216 217 217 216 216 217 216 216 225 234 234
177 250 252 257 250 242 243 243 241 246 248 248 248 250 251 249 243 235 225 228 232 235 235 233 238 245 240 227 225 228 234 240 232 220 233 241 241 241 225 122 140 213 262 274 279 268 233 225 234 248 259 257 248 237 214 192 188 190 192 197 200 204 210 211 211 215 220 223 221 220 222 223 220 219 220 218 217 218 216 214 215 213 214 230 238 229
189 241 243 253 261 258 257 259 259 255 253 262 273 272 274 273 265 254 243 233 227 233 238 233 236 242 241 234 227 218 222 240 237 225 239 250 271 289 298 273 252 253 249 261 271 264 246 248 254 259 264 256 246 254 254 230 200 190 194 200 198 202 211 214 212 212 217 231 240 232 224 223 222 220 220 221 220 218 215 211 212 215 217 223 225 220
188 250 241 243 258 261 261 264 267 269 267 254 262 274 283 291 286 274 266 257 242 239 245 241 242 244 241 238 228 204 194 211 229 238 253 267 265 271 288 279 271 272 256 247 265 281 294 325 329 312 300 282 254 254 263 262 237 202 194 199 198 202 211 216 218 215 211 222 252 256 240 225 221 221 216 218 221 215 209 208 212 218 221 223 224 219
172 249 246 244 255 258 256 258 262 268 269 259 247 250 254 268 278 275 270 265 261 261 258 251 249 248 244 247 248 229 202 204 213 229 237 241 241 239 253 263 265 276 280 270 284 307 338 4 358 345 338 329 303 287 277 271 264 225 194 189 188 198 207 212 218 220 213 211 226 252 256 236 220 220 217 217 221 216 211 212 215 219 222 226 224 214
114 242 239 243 253 254 255 259 260 262 273 287 280 262 248 248 261 267 265 264 266 268 266 261 258 253 247 257 263 270 278 263 251 256 255 258 266 256 247 261 276 291 292 284 295 343 10 6 348 337 332 330 325 317 305 291 285 263 212 187 175 185 199 205 209 213 212 210 215 241 263 252 230 224 221 218 220 217 213 215 216 218 222 225 222 214
112 246 241 228 240 250 249 253 260 275 323 312 285 269 255 249 250 258 263 261 257 262 264 259 256 254 263 281 284 301 298 275 258 256 257 268 283 271 249 255 293 320 326 332 355 10 3 342 333 338 332 325 319 309 299 292 284 265 239 215 182 179 190 196 198 201 202 206 210 224 254 256 240 224 216 215 219 217 213 211 213 215 219 221 220 216
188 233 233 207 228 250 234 227 250 360 17 285 267 255 249 250 250 254 260 257 249 252 260 254 250 259 285 276 281 283 271 263 250 239 237 280 317 307 306 292 307 355 12 7 3 354 342 336 335 335 328 318 310 300 294 293 291 277 256 235 192 175 183 190 192 192 191 202 210 209 233 251 241 219 206 207 214 216 212 211 215 219 221 221 219 216
233 235 233 217 225 245 224 190 86 36 243 253 256 202 222 234 241 248 257 257 246 231 253 261 256 243 228 234 255 262 254 257 59 72 51 49 20 353 12 20 9 23 26 7 351 340 339 337 327 319 314 307 299 297 293 291 292 292 282 242 187 178 184 188 190 192 193 204 214 212 227 242 233 211 201 202 207 211 210 212 218 222 222 219 217 215
248 236 235 227 220 235 207 126 160 233 235 231 152 213 220 221 230 243 258 262 254 235 244 258 261 249 237 235 240 173 117 107 97 89 48 84 105 89 64 62 35 18 14 351 335 328 327 321 312 307 303 298 295 293 289 281 281 282 279 246 187 185 192 191 192 203 210 212 213 214 223 231 226 212 203 201 205 209 211 213 217 219 217 214 213 214
240 234 246 238 218 218 174 181 211 249 295 266 228 228 226 219 224 238 257 262 262 261 256 258 262 260 263 310 60 102 107 102 107 170 243 168 135 130 125 127 105 349 331 315 310 310 310 309 309 306 302 299 295 290 285 280 277 272 263 248 200 182 188 194 193 202 215 213 209 216 222 226 228 225 210 199 201 207 211 217 221 220 217 214 215 216
213 213 221 239 228 216 212 211 232 305 307 265 237 223 219 220 216 226 249 250 247 252 262 265 260 256 260 299 138 135 117 102 144 252 234 153 135 133 138 142 131 254 278 293 289 272 270 306 316 312 306 300 294 289 286 283 283 275 261 256 222 181 180 188 189 198 216 216 210 219 223 219 222 230 226 210 202 204 209 215 218 217 215 212 212 214
196 193 193 224 235 216 222 223 223 255 258 242 222 222 227 221 182 199 248 245 228 235 263 275 262 238 104 174 174 147 125 211 234 280 65 96 107 105 115 142 145 241 269 292 283 272 283 340 320 310 313 313 308 299 291 282 281 277 262 258 244 187 175 180 183 194 212 216 209 216 222 221 221 228 233 225 212 207 206 206 208 210 209 208 208 209
161 146 160 212 230 204 221 221 212 229 247 217 208 227 229 163 99 88 261 251 225 227 253 270 258 169 120 179 170 150 169 225 196 83 63 76 84 68 41 353 332 298 280 278 280 289 334 333 304 308 328 331 331 323 307 289 277 276 266 258 250 199 178 187 193 200 214 217 213 213 217 226 233 235 239 235 225 218 211 204 202 203 205 209 209 209
154 134 150 201 208 193 216 229 229 238 274 339 20 75 96 111 107 119 240 247 201 214 239 258 254 192 151 153 158 167 194 207 118 100 73 73 88 91 85 308 295 283 275 274 289 330 347 314 303 320 339 337 338 332 318 301 276 272 266 259 259 237 192 200 207 211 218 223 221 214 211 221 231 238 248 245 232 224 220 212 205 201 201 205 206 207
169 166 184 205 209 204 209 229 266 271 274 285 340 87 91 82 108 178 217 189 100 117 80 67 69 83 107 122 147 183 200 110 94 116 122 111 285 253 213 228 246 266 287 295 317 343 322 301 308 322 329 338 340 330 326 324 305 283 271 261 269 300 47 219 221 220 221 228 230 209 202 210 221 235 253 255 239 226 224 223 217 207 202 201 200 201
176 165 184 199 204 209 204 222 263 274 235 240 271 99 120 126 189 200 190 93 106 109 81 79 88 84 100 130 136 157 290 3 59 109 129 146 224 286 301 301 292 292 307 311 321 333 319 313 316 313 317 333 334 333 342 344 337 326 303 272 264 255 243 239 230 223 228 239 249 235 220 220 227 241 254 255 245 230 226 229 225 213 205 204 204 204
172 161 189 191 189 198 187 202 240 269 183 182 183 50 175 192 231 192 120 97 108 107 91 92 93 90 114 131 110 192 248 274 281 348 353 328 282 262 279 323 305 296 298 300 307 325 336 326 315 308 311 324 330 343 358 355 352 358 359 295 239 237 239 239 235 234 238 242 249 258 256 240 231 235 240 241 239 236 234 234 227 213 205 204 206 214
180 178 198 187 178 183 190 202 225 319 190 175 161 170 211 190 84 338 122 115 137 131 116 136 132 140 171 176 190 209 209 5 353 356 343 319 325 330 310 254 276 287 295 293 293 313 337 319 314 309 303 302 322 344 357 3 2 360 3 354 250 225 211 213 223 230 234 237 244 255 249 227 223 230 235 235 235 235 238 239 229 212 202 198 196 203
196 193 201 196 188 197 222 226 227 4 355 165 106 20 278 91 81 240 214 130 166 172 166 194 191 182 181 172 229 241 168 81 289 280 315 328 334 331 308 284 267 267 281 283 279 259 214 290 315 315 304 301 317 330 340 359 3 356 3 3 323 275 212 199 202 205 210 219 237 249 247 237 232 236 238 236 231 228 232 236 226 202 192 198 201 202
205 194 209 228 198 214 245 245 236 277 354 97 80 27 352 356 315 263 250 244 213 176 180 187 176 166 167 141 156 257 244 250 272 278 336 329 304 296 295 291 283 271 265 271 279 283 284 294 307 310 310 315 316 312 317 335 339 345 8 10 343 323 302 251 209 201 206 209 217 229 240 247 250 250 248 240 229 223 227 234 227 203 184 188 202 211
214 199 209 221 200 204 237 227 220 232 219 139 117 41 357 314 275 284 278 288 350 335 263 206 107 62 69 91 186 258 259 285 299 289 288 278 269 268 270 274 280 279 269 268 282 295 296 287 279 280 295 313 310 303 306 315 314 323 3 8 343 329 324 324 331 324 273 224 224 236 247 255 258 258 260 260 247 234 231 228 222 210 187 171 180 196
227 206 211 225 219 216 253 272 233 221 193 145 137 99 17 298 282 322 306 293 306 302 294 303 119 122 81 174 227 241 249 248 252 267 278 276 272 270 269 268 274 282 281 279 277 275 275 281 288 292 296 299 298 296 296 300 303 309 327 336 330 336 337 332 333 332 327 313 289 275 271 269 262 249 247 254 258 252 241 220 208 211 205 194 192 193
290 222 203 212 232 242 290 306 284 227 187 170 146 121 159 268 288 343 328 309 297 265 251 251 227 199 215 228 225 231 249 255 250 257 267 270 269 268 270 275 277 278 282 285 280 271 265 267 270 273 276 276 272 274 282 285 287 294 302 309 323 344 345 328 321 321 319 317 313 305 298 293 282 263 252 249 250 253 248 225 213 220 222 220 219 215
262 245 201 160 227 242 261 289 292 269 228 199 160 162 199 222 232 254 273 278 274 252 234 232 227 213 219 232 236 237 246 255 263 267 269 272 276 277 278 278 276 274 274 279 284 286 284 279 277 282 292 289 270 251 253 262 269 276 276 275 284 299 308 309 310 305 303 308 305 300 303 304 295 278 265 254 246 244 235 221 224 233 233 229 231 231
236 239 200 199 238 250 142 169 199 264 284 213 134 172 193 195 203 222 229 236 248 256 259 264 264 246 240 251 265 267 271 283 284 274 269 268 269 275 276 272 270 273 276 277 282 284 282 281 284 290 291 285 275 261 243 229 239 263 269 265 269 273 272 278 291 296 298 308 308 301 305 313 312 303 292 279 264 246 218 207 222 235 238 236 235 232
Height
757 771 775 773 769 761 754 749 748 745 747 754 756 758 756 750 749 742 737 735 737 752 755 747 746 745 748 747 746 749 747 748 750 750 754 756 761 766 767 769 769 769 770 770 775 778 780 783 784 786 787 789 790 792 793 794 795 796 798 800 801 803 805 806 808 809 810 811 812 812 813 813 813 814 815 815 815 816 817 818 821 822 822 823 824 825
756 774 772 762 758 751 746 742 741 746 752 757 758 760 755 749 747 737 735 736 734 749 754 743 745 744 742 743 743 747 747 745 746 748 750 751 758 762 763 766 766 766 767 769 774 776 779 783 783 784 785 787 789 790 792 793 793 795 795 797 799 800 802 804 806 807 808 808 809 810 810 811 812 812 813 814 813 814 815 816 818 820 821 822 822 824
766 772 763 752 749 744 743 742 746 752 756 759 758 761 759 749 746 739 733 735 734 747 753 745 746 744 736 734 735 737 739 739 738 741 744 747 753 758 759 762 762 764 767 770 775 776 779 782 783 784 784 785 787 788 790 792 793 794 794 795 797 799 800 802 803 804 805 806 807 808 809 810 811 811 812 812 812 812 813 814 816 818 819 820 820 822
772 763 750 743 743 744 746 747 752 757 757 760 759 761 760 746 747 749 739 737 738 743 749 747 748 745 737 734 731 729 729 730 731 734 737 740 745 748 750 755 758 763 767 770 774 775 778 782 783 784 784 783 786 788 788 789 791 792 793 794 795 797 798 799 801 802 803 804 805 807 807 808 810 810 811 811 812 812 812 812 814 816 817 818 819 820
765 751 738 737 739 744 752 752 754 761 762 759 755 759 758 743 744 750 743 739 740 740 739 744 755 751 740 739 734 725 724 728 729 731 735 737 739 741 744 748 753 758 764 768 771 773 776 780 782 783 783 782 783 785 786 786 788 790 791 792 793 795 796 797 799 800 802 803 804 805 806 807 808 809 809 809 810 811 811 812 813 813 814 816 817 819
756 742 734 740 743 746 755 757 754 759 763 759 751 746 747 744 742 745 744 745 754 756 737 737 766 764 740 738 737 727 727 730 730 732 735 737 737 740 744 746 749 753 760 764 767 769 773 776 779 782 782 781 780 780 782 784 786 787 789 790 791 793 794 796 797 799 800 801 802 803 803 804 805 806 807 807 807 809 810 811 812 813 814 816 816 818
747 738 735 743 749 750 756 758 751 751 761 763 748 734 736 742 746 748 749 753 765 765 740 735 766 773 749 739 735 730 733 734 733 736 735 735 736 738 742 743 745 749 755 759 761 764 768 772 776 779 780 779 777 777 779 782 784 785 787 788 789 790 792 794 795 796 798 799 800 801 801 801 802 804 805 805 806 807 808 810 812 814 817 819 818 818
742 743 744 747 751 754 757 759 750 746 758 759 741 733 738 743 749 751 751 756 757 753 744 737 750 766 761 745 730 729 736 736 736 739 735 733 734 734 736 739 740 744 748 752 757 760 763 767 771 776 778 778 776 776 777 780 782 783 785 786 787 788 789 791 793 794 795 797 798 799 800 800 800 802 803 804 805 806 808 810 811 814 818 821 821 820
738 745 748 747 753 757 754 752 744 743 754 748 733 736 741 743 748 747 749 755 749 753 762 746 738 760 764 741 727 728 736 740 738 736 733 730 730 730 730 733 736 739 742 747 753 757 759 762 766 771 774 776 776 775 775 777 779 781 783 785 786 787 787 789 790 791 793 794 796 797 798 798 799 800 801 802 803 804 806 808 810 812 815 818 820 819
738 738 738 742 750 753 748 743 737 740 746 737 732 740 743 744 747 747 753 755 752 763 772 751 740 761 763 740 730 732 735 739 736 730 729 727 726 728 728 731 734 737 742 746 750 754 757 759 762 767 770 773 774 774 774 775 777 779 781 783 784 785 786 787 788 789 791 793 794 796 796 797 798 799 800 801 801 802 804 806 808 810 812 814 815 816
735 728 731 739 742 741 739 737 734 735 735 732 738 747 749 748 746 750 752 752 766 777 768 749 739 752 764 749 734 734 733 732 732 731 730 728 727 730 731 731 733 736 741 746 749 751 754 757 760 765 768 770 772 772 773 774 775 777 779 781 782 783 784 785 786 788 789 791 793 794 795 796 797 798 799 800 801 801 802 804 805 807 809 810 812 813
737 735 736 735 733 733 737 737 732 729 730 736 745 752 760 759 753 759 758 758 782 787 762 743 734 744 766 755 733 730 726 724 730 733 733 733 732 732 734 733 733 735 739 743 746 749 752 756 758 761 765 767 769 770 771 772 773 775 777 779 780 781 782 784 785 787 788 790 792 793 794 795 796 797 798 799 800 800 801 802 804 805 807 808 809 810
744 740 735 731 730 733 742 746 740 736 737 745 751 759 775 779 774 778 777 772 781 775 751 738 735 745 757 745 729 726 723 723 727 730 732 735 734 734 735 735 734 735 737 739 742 746 750 753 755 759 763 765 766 768 769 771 772 774 776 777 778 780 781 783 785 786 788 789 790 792 793 794 794 795 796 797 798 799 800 801 802 804 805 806 807 808
755 744 733 734 733 730 740 750 752 748 745 751 755 763 779 788 792 793 783 776 777 764 744 734 740 753 753 737 725 723 724 727 728 730 734 734 735 737 735 735 735 734 736 737 739 743 747 750 753 756 760 763 766 767 768 769 771 773 775 776 778 779 781 783 784 786 787 788 789 790 791 792 793 794 795 796 797 798 799 800 801 802 803 804 804 805
767 759 738 734 734 730 735 741 745 743 742 745 744 751 766 772 783 788 778 776 776 763 748 741 749 760 757 739 723 720 725 728 730 732 733 735 736 737 736 735 735 734 733 735 738 741 744 748 751 754 756 760 764 767 768 768 770 772 774 776 777 779 780 782 783 785 786 787 788 789 790 791 792 792 793 794 796 797 798 798 800 801 801 802 803 803
763 758 730 719 719 723 731 731 730 738 744 739 731 744 757 753 757 766 765 761 762 767 763 756 752 746 739 730 718 720 726 727 732 733 734 738 736 736 738 737 737 736 734 733 736 740 742 745 750 752 754 757 760 764 766 768 770 772 774 775 776 778 779 780 782 783 784 785 786 787 788 789 790 791 792 793 794 795 796 797 798 799 800 801 801 802
759 752 725 717 716 714 723 725 724 737 746 739 735 743 741 732 740 758 764 753 757 777 775 761 757 742 734 734 721 720 728 728 732 734 734 738 736 736 740 738 738 738 735 734 735 738 742 745 749 751 754 756 758 762 765 768 772 773 773 774 775 777 778 779 780 781 781 782 782 783 784 786 787 788 789 790 792 793 794 795 796 797 798 799 800 801
750 750 728 721 725 714 709 717 720 723 732 739 743 735 724 727 734 747 765 766 770 785 774 759 762 754 749 748 729 723 734 734 732 733 734 735 735 736 738 738 738 736 735 736 736 738 742 744 747 750 753 756 758 761 766 769 772 773 772 773 774 775 776 777 778 778 778 779 780 781 782 783 785 786 787 788 789 790 791 792 793 795 796 797 799 800
739 751 736 720 725 716 703 717 729 722 720 730 733 722 725 745 750 748 762 774 781 789 777 760 756 750 748 745 734 731 737 735 730 729 731 732 732 734 734 734 735 734 735 737 737 739 740 743 746 748 751 754 756 760 764 768 770 770 770 771 773 775 775 776 776 776 778 779 780 781 781 782 783 783 785 786 787 788 789 790 791 792 794 795 797 798
729 749 749 725 716 716 712 724 741 735 720 721 726 723 726 739 747 748 753 761 774 785 780 768 760 749 737 732 733 733 731 729 729 729 730 730 729 730 731 731 732 733 735 736 737 738 738 741 745 746 749 752 755 757 759 765 770 771 770 770 772 774 773 773 774 775 776 777 778 779 780 781 781 781 782 783 784 785 787 788 789 790 791 793 794 796
723 740 752 736 719 721 725 728 735 736 728 728 734 738 737 732 734 743 746 746 759 775 778 777 774 753 727 720 727 728 725 726 728 730 732 730 728 728 727 729 732 733 736 736 736 737 738 740 742 745 748 750 752 755 757 761 768 771 772 771 770 770 770 770 772 773 774 775 776 778 778 779 780 780 781 781 782 783 784 786 787 788 790 791 792 794
725 734 744 743 735 732 728 718 717 721 724 728 731 733 739 736 736 752 759 746 744 759 766 772 777 754 723 716 721 722 724 726 726 730 731 728 727 727 726 728 731 733 735 736 736 737 738 739 740 743 746 748 750 752 755 759 762 764 767 769 769 767 767 768 769 771 772 773 774 775 777 778 778 778 779 780 780 781 782 784 785 787 788 789 791 792
720 728 737 741 735 729 720 709 708 711 714 721 723 722 728 733 736 754 766 752 744 750 749 756 769 752 720 712 717 719 722 722 722 725 725 725 724 724 725 726 727 730 733 734 736 736 737 738 740 742 744 746 747 748 751 754 756 759 762 765 766 765 765 766 767 769 771 771 772 773 775 776 777 777 777 778 779 779 780 782 783 784 786 787 789 791
720 729 739 740 731 721 715 709 706 707 712 722 723 717 721 727 730 737 743 742 747 752 748 757 770 751 720 710 714 717 718 718 719 718 721 725 724 723 726 727 727 729 730 732 733 734 735 737 739 740 742 743 744 745 747 749 751 755 757 760 762 763 764 764 765 767 769 769 771 772 773 774 775 775 775 776 777 777 778 779 780 782 783 785 787 789
733 735 740 749 750 742 735 731 725 719 719 725 724 719 717 718 721 727 730 735 748 750 747 760 768 747 720 712 713 715 716 718 718 717 719 722 722 722 726 727 727 729 729 730 731 731 733 734 735 736 737 739 741 742 743 745 747 749 752 755 757 759 760 761 763 765 767 768 769 770 771 772 773 774 774 774 775 775 776 778 779 780 781 783 785 787
738 739 739 750 760 759 754 749 740 732 726 725 724 721 718 715 717 725 732 743 753 747 742 753 757 740 721 716 717 717 718 719 719 718 718 719 720 722 724 725 726 726 728 730 730 730 731 732 733 734 734 736 737 738 740 742 743 745 747 749 752 755 756 758 761 763 764 766 767 768 769 770 772 772 772 773 773 774 775 776 778 779 781 783 785 787
735 738 735 740 744 743 742 734 726 728 733 733 728 723 720 715 713 718 732 743 746 743 744 743 740 735 728 723 724 722 721 722 721 721 721 720 721 722 722 724 725 725 728 729 729 730 730 731 732 732 732 733 733 735 737 739 740 742 744 746 749 751 753 756 758 759 762 765 765 766 767 768 770 770 771 771 771 772 773 775 777 777 778 780 783 786
738 741 735 736 734 729 728 724 720 725 733 735 734 731 728 724 718 720 729 732 732 741 747 733 725 732 730 723 724 723 722 723 722 722 722 721 722 723 722 724 724 724 726 728 729 729 729 730 729 729 730 730 731 733 734 736 738 739 741 743 745 748 750 752 754 756 759 762 764 766 765 766 767 768 769 770 770 771 772 773 774 773 774 776 779 781
740 742 733 734 736 730 728 726 724 726 728 729 734 736 737 737 733 729 727 722 722 733 737 725 721 728 724 718 720 720 720 723 723 721 721 721 722 724 724 725 725 724 725 725 727 727 727 729 729 728 729 728 730 731 732 734 735 736 738 740 742 745 747 749 752 753 755 758 764 768 766 764 765 765 766 768 768 770 770 770 771 771 771 774 776 779
739 744 735 735 739 735 731 730 729 731 730 728 731 731 733 738 739 734 728 721 719 721 720 718 720 721 716 715 716 714 714 716 717 719 720 721 722 722 725 726 724 723 723 724 725 726 727 730 730 730 729 729 729 730 731 732 732 732 735 738 740 743 745 747 750 751 752 754 760 767 768 765 763 764 765 766 767 768 768 768 769 769 770 772 775 777
740 745 736 737 745 741 735 734 733 733 735 738 737 729 726 733 739 737 730 724 725 725 720 719 722 720 712 710 710 711 711 712 715 719 720 720 720 720 722 724 723 722 723 724 725 727 729 731 732 732 731 731 730 730 731 731 730 731 733 736 738 740 743 746 748 749 752 753 756 764 769 767 763 762 763 764 765 766 766 766 767 768 769 770 773 775
744 747 738 742 754 749 741 742 741 741 751 757 749 737 733 734 736 736 731 726 729 731 728 728 728 722 715 712 712 713 713 714 717 719 719 721 721 720 720 722 723 724 726 727 728 730 732 734 734 734 733 733 732 732 732 731 730 730 731 733 734 737 740 744 746 748 751 752 754 760 765 766 762 759 760 761 762 763 764 764 765 767 768 769 771 773
743 746 742 747 757 751 743 745 747 755 768 762 741 734 737 735 732 732 730 724 722 727 733 733 726 719 717 719 720 719 717 717 717 716 718 722 723 722 720 721 724 726 729 732 733 733 735 735 735 736 735 734 734 733 732 731 729 728 728 730 731 733 737 741 744 747 748 750 752 753 757 761 760 757 757 758 759 760 761 762 763 764 766 767 769 772
745 746 745 746 755 755 746 746 756 768 770 749 725 722 728 728 729 732 730 722 718 724 730 725 716 714 717 719 722 722 718 717 717 716 717 720 723 724 724 725 727 729 732 735 735 736 737 737 737 738 737 736 735 733 732 731 729 727 727 727 728 730 734 737 740 743 745 746 747 747 750 755 756 755 755 755 757 758 758 760 760 761 763 765 767 769
751 751 748 745 752 754 749 755 770 770 751 728 718 716 716 717 720 724 723 716 713 720 725 720 713 712 711 712 716 718 718 717 717 717 717 719 721 723 726 728 730 732 734 736 737 738 738 738 738 738 736 735 734 732 731 730 728 727 726 726 726 727 730 733 735 738 740 741 742 743 746 748 750 751 751 752 754 755 756 757 757 758 760 762 764 765
752 752 750 748 751 754 757 764 764 750 731 721 719 716 713 714 717 722 726 719 711 714 719 716 712 709 708 711 715 717 718 718 718 719 718 719 720 722 727 730 731 733 735 736 737 738 737 738 738 737 735 733 732 731 729 728 727 725 724 724 724 724 726 729 732 734 736 737 738 740 742 743 745 747 748 750 751 752 753 754 754 756 757 759 761 762
748 751 754 756 753 753 760 761 752 743 736 727 720 715 713 714 715 720 728 722 710 709 711 710 709 708 710 717 720 718 719 721 724 722 717 717 720 722 725 728 730 733 734 734 736 735 735 736 736 735 733 730 729 729 728 726 725 723 722 723 722 723 724 726 728 731 733 735 736 738 740 741 743 745 747 747 747 748 750 750 751 753 755 756 758 759
745 746 752 758 756 753 758 759 756 755 744 725 716 710 705 706 707 711 720 719 707 705 707 707 708 708 711 718 720 720 723 727 729 725 719 719 721 722 725 727 728 731 733 734 734 733 732 734 734 733 731 728 727 727 726 725 724 722 721 721 721 722 723 724 726 729 732 733 735 736 738 739 741 743 744 745 745 745 746 747 748 750 751 753 754 755
746 746 750 758 762 760 759 755 751 746 731 715 709 704 701 704 705 710 726 725 708 703 705 705 706 707 710 714 715 718 726 731 731 728 724 723 724 724 727 728 728 731 733 733 732 731 731 733 732 731 729 728 727 726 725 724 723 722 720 720 720 722 722 723 725 727 730 731 733 735 737 738 738 740 741 743 743 743 743 744 746 747 748 750 751 752
749 750 752 758 761 761 760 754 745 736 724 713 707 704 704 704 704 721 742 732 707 701 704 703 705 706 706 710 713 718 725 728 729 730 726 724 725 726 727 729 730 732 732 731 730 731 731 732 730 729 728 728 727 726 725 723 721 721 720 719 720 721 722 723 724 725 727 729 731 732 733 734 736 737 738 740 741 741 742 742 743 744 745 746 748 749
752 753 753 753 754 757 758 755 747 736 722 712 708 706 706 708 716 732 739 721 705 705 705 703 706 707 706 711 715 717 719 720 722 725 724 723 725 726 725 727 729 729 730 729 729 730 731 731 730 728 728 728 727 726 725 722 720 720 720 720 721 721 722 722 723 723 725 727 729 731 731 732 734 735 737 740 739 738 739 740 740 741 741 741 743 745
749 753 752 750 750 751 752 751 749 738 719 708 709 707 707 719 730 728 716 706 705 708 706 706 708 709 710 713 714 716 717 716 717 720 721 723 725 725 725 726 726 727 729 729 729 730 730 730 730 729 728 727 727 727 725 723 721 720 720 721 722 721 721 721 722 722 723 725 727 728 729 731 732 734 739 742 739 736 737 737 738 738 739 741 744 746
736 742 745 744 743 745 750 750 747 736 715 704 710 713 712 719 722 711 704 705 706 706 707 709 709 710 712 714 715 716 716 715 716 718 720 722 723 723 725 726 726 727 728 728 729 729 730 731 730 729 728 727 727 726 725 724 723 722 722 723 722 721 720 720 720 720 721 723 725 727 728 730 731 734 738 739 736 734 734 735 735 736 739 743 746 747
729 731 733 733 731 736 743 739 728 718 706 701 707 711 710 710 708 704 705 708 706 705 708 710 710 711 713 713 714 715 715 716 718 718 720 722 722 723 724 725 726 727 727 728 728 729 730 731 730 729 728 727 727 727 725 724 724 723 723 723 722 721 720 720 720 720 721 723 725 727 728 729 731 733 733 732 732 732 732 733 733 733 736 739 740 741
720 716 718 720 719 720 722 717 710 705 703 703 706 708 707 706 706 705 705 706 706 706 707 708 710 710 710 712 714 714 715 717 719 719 720 722 723 724 725 725 725 726 727 727 727 727 729 730 729 729 728 726 726 726 725 724 724 723 723 723 723 722 722 721 722 722 722 723 724 725 726 727 728 728 727 727 728 729 730 731 731 731 734 736 737 739
710 710 714 714 712 712 709 705 704 706 705 705 708 710 710 709 707 706 705 705 705 705 705 707 709 709 709 712 714 715 716 717 718 719 720 722 724 725 725 725 724 725 726 726 726 726 727 727 728 728 727 727 727 726 725 724 723 723 723 723 723 723 723 722 722 722 722 723 723 724 725 725 725 725 724 725 726 726 727 728 728 729 732 734 736 739
707 710 714 712 711 713 711 704 702 705 706 706 708 711 712 712 711 711 710 707 706 706 706 706 708 710 711 712 714 716 717 717 719 720 721 722 724 725 725 725 724 724 724 724 724 725 725 725 726 726 726 727 727 725 725 724 723 722 722 723 723 723 723 723 722 722 721 722 722 723 723 723 723 723 723 723 724 724 725 725 725 727 729 731 734 737
708 706 709 709 708 711 710 703 699 701 703 705 708 710 713 715 713 711 710 708 707 708 707 707 708 710 712 713 716 717 716 716 718 720 721 723 723 723 723 723 723 723 723 723 723 723 723 723 724 724 724 725 725 725 724 724 723 723 723 722 723 723 723 723 723 722 721 721 721 721 722 721 721 721 721 722 722 722 723 723 723 724 726 727 729 731
715 710 708 709 710 711 711 707 704 704 706 708 709 711 714 715 711 709 710 710 709 709 709 709 709 710 712 714 714 714 715 716 716 718 721 722 722 722 722 722 722 722 722 721 721 721 721 722 722 722 722 722 723 724 724 723 723 723 723 723 723 722 722 723 722 721 721 720 720 720 720 720 720 720 719 719 720 720 721 721 721 722 722 723 725 727
719 715 710 711 714 714 714 712 710 711 713 712 712 713 714 713 712 711 712 712 711 710 709 709 709 709 710 711 711 711 713 714 714 717 719 720 720 720 720 720 720 720 720 720 720 719 719 720 720 719 720 720 721 721 722 722 723 722 722 722 722 722 722 722 721 720 720 719 719 719 720 720 720 718 717 716 717 717 718 719 719 719 719 720 722 723
716 714 712 713 713 711 712 713 714 716 717 713 710 710 710 710 710 712 712 712 711 710 708 709 709 709 709 709 709 710 711 713 715 717 718 718 719 719 719 719 719 718 718 718 718 718 718 718 718 718 718 718 718 719 719 720 721 721 721 721 721 721 721 720 720 719 718 718 718 718 719 719 719 717 716 715 714 715 716 717 718 718 717 718 720 721